CAPE
0 0 0 0 0 0 0 0 0 0 0 0 0 0 0 0 0 0 0 0 0 0 0 0 0 0 0 0 0 0 0 0 0 0 0 0 0 0 0 532 529 506 353 400 1067
0 0 0 0 0 0 0 0 0 0 0 0 0 0 0 0 0 0 0 0 0 0 0 0 0 0 0 0 0 0 0 0 0 0 0 0 0 0 0 7 27 250 493 534 1152
0 0 0 0 0 0 0 0 0 0 0 0 0 0 0 0 0 0 0 0 0 0 0 0 0 0 0 0 0 0 0 0 0 0 0 0 0 0 0 0 0 0 14 661 1090
0 0 0 0 0 0 0 0 0 0 0 0 0 0 0 0 0 0 0 0 0 0 0 0 0 0 0 0 0 0 0 0 0 0 0 0 0 0 0 0 0 0 179 682 995
0 0 0 0 0 0 0 0 0 0 0 0 0 0 0 0 0 0 0 0 0 0 0 0 0 0 0 0 0 0 0 0 0 0 0 0 0 0 0 0 0 36 220 455 992
0 0 0 0 0 0 0 0 0 0 0 0 0 0 0 0 0 0 0 0 0 0 0 0 0 0 0 0 0 0 0 0 0 0 0 0 0 0 0 0 0 85 254 502 822
0 0 0 0 0 0 0 0 0 0 0 0 0 0 0 0 0 0 0 0 0 0 0 0 0 0 0 0 0 0 0 0 0 0 0 0 0 0 0 0 0 12 537 750 839
0 0 0 0 0 0 0 0 0 0 0 0 0 0 0 0 0 0 0 0 0 0 0 0 0 0 0 0 0 0 0 0 0 0 0 0 0 0 0 0 0 0 0 512 1146
0 0 0 0 0 0 0 0 0 0 0 0 0 0 0 0 0 0 0 0 0 0 0 0 0 0 0 0 0 0 0 0 0 0 0 0 0 0 0 0 0 0 0 0 1064
0 0 0 0 0 0 0 0 0 0 0 0 0 0 0 0 0 0 0 0 0 0 0 0 0 0 0 0 0 0 0 0 0 0 0 0 0 0 0 0 0 0 0 0 8
0 0 0 0 0 0 0 0 0 0 0 0 0 0 0 0 0 0 0 0 0 0 0 0 0 0 0 0 0 0 0 0 0 0 0 0 0 0 0 0 0 0 33 142 263
0 0 0 0 0 0 0 0 0 0 0 0 0 0 0 0 0 0 0 0 0 0 0 0 0 0 0 0 0 0 0 0 0 0 0 0 0 0 0 0 0 0 0 86 275
0 0 0 0 0 0 0 0 0 0 0 0 0 0 0 0 0 0 0 0 0 0 0 0 0 0 0 0 0 0 0 0 0 0 0 0 0 0 0 0 0 1 3 1 3
0 0 0 0 0 0 0 0 0 0 0 0 0 0 0 0 0 0 0 0 0 0 0 0 0 0 0 0 0 0 0 0 0 0 0 0 0 0 0 0 0 0 2 3 3
0 0 0 0 0 0 0 0 0 0 0 0 0 0 0 0 0 0 0 0 0 0 0 0 0 0 0 0 0 0 0 0 0 0 0 0 0 0 0 0 0 0 0 2 2
0 0 0 0 0 0 0 0 0 0 0 0 0 0 0 0 0 0 0 0 0 0 0 0 0 0 0 0 0 0 0 0 0 0 0 0 0 0 0 0 0 0 0 1 0
0 0 0 0 0 0 0 0 0 0 0 0 0 0 0 0 0 0 0 0 0 0 0 0 0 0 0 0 0 0 0 0 0 0 0 0 0 0 0 0 0 0 0 0 0
0 0 0 0 0 0 0 0 0 0 0 0 0 0 0 0 0 0 0 0 0 0 0 0 0 0 0 0 0 0 0 0 0 0 0 0 0 0 0 0 0 0 0 0 0
0 0 0 0 0 0 0 0 0 0 0 0 0 0 0 0 0 0 0 0 0 0 0 0 0 0 0 0 0 0 0 0 0 0 0 0 0 0 0 0 0 0 0 1 0
0 0 0 0 0 0 0 0 0 0 0 0 0 0 0 0 0 0 0 0 0 0 0 0 0 0 0 0 0 0 0 0 0 0 0 0 0 0 0 0 0 0 0 0 0
0 0 0 0 0 0 0 0 0 0 0 0 0 0 0 0 0 0 0 0 0 0 0 0 0 0 0 0 0 0 0 0 0 0 0 0 0 0 0 0 0 0 0 0 0
0 0 0 0 0 0 0 0 0 0 0 0 0 0 0 0 0 0 0 0 0 0 0 0 0 0 0 0 0 0 0 0 0 0 0 0 0 0 0 0 0 0 0 0 0
0 0 0 0 0 0 0 0 0 0 0 0 0 0 0 0 0 0 0 0 0 0 0 0 0 0 0 0 0 0 0 0 0 0 0 0 0 0 0 0 0 0 0 0 0
0 0 0 0 0 0 0 0 0 0 0 0 0 0 0 0 0 0 0 0 0 0 0 0 0 0 0 0 0 0 0 0 0 0 0 0 0 0 0 0 0 0 0 0 0
0 0 0 0 0 0 0 0 0 0 0 0 0 0 0 0 0 0 0 0 0 0 0 0 0 0 0 0 0 0 0 0 0 0 0 0 0 0 0 0 0 0 0 0 0
0 0 0 0 0 0 0 0 0 0 0 0 0 0 0 0 0 0 0 0 0 0 0 0 0 0 0 0 0 0 0 0 0 0 0 0 0 0 0 0 0 0 0 0 0
0 0 0 0 0 0 0 0 0 0 0 0 0 0 0 0 0 0 0 0 0 0 0 0 0 0 0 0 0 0 0 0 0 0 0 0 0 0 0 0 0 0 0 0 19
CIN
0 0 0 0 0 0 0 0 0 0 0 0 0 0 0 0 0 0 0 0 0 0 0 0 0 0 0 0 0 0 0 0 0 0 0 0 0 0 0 -131 -128 -149 -142 -203 -312
0 0 0 0 0 0 0 0 0 0 0 0 0 0 0 0 0 0 0 0 0 0 0 0 0 0 0 0 0 0 0 0 0 0 0 0 0 0 0 -63 -52 -141 -257 -367 -370
0 0 0 0 0 0 0 0 0 0 0 0 0 0 0 0 0 0 0 0 0 0 0 0 0 0 0 0 0 0 0 0 0 0 0 0 0 0 0 0 0 0 -71 -296 -331
0 0 0 0 0 0 0 0 0 0 0 0 0 0 0 0 0 0 0 0 0 0 0 0 0 0 0 0 0 0 0 0 0 0 0 0 0 0 0 0 0 0 -204 -254 -252
0 0 0 0 0 0 0 0 0 0 0 0 0 0 0 0 0 0 0 0 0 0 0 0 0 0 0 0 0 0 0 0 0 0 0 0 0 0 0 0 0 -268 -239 -222 -198
0 0 0 0 0 0 0 0 0 0 0 0 0 0 0 0 0 0 0 0 0 0 0 0 0 0 0 0 0 0 0 0 0 0 0 0 0 0 0 0 0 -282 -230 -208 -187
0 0 0 0 0 0 0 0 0 0 0 0 0 0 0 0 0 0 0 0 0 0 0 0 0 0 0 0 0 0 0 0 0 0 0 0 0 0 0 0 0 -40 -227 -212 -220
0 0 0 0 0 0 0 0 0 0 0 0 0 0 0 0 0 0 0 0 0 0 0 0 0 0 0 0 0 0 0 0 0 0 0 0 0 0 0 0 0 0 0 -236 -207
0 0 0 0 0 0 0 0 0 0 0 0 0 0 0 0 0 0 0 0 0 0 0 0 0 0 0 0 0 0 0 0 0 0 0 0 0 0 0 0 0 0 0 0 -231
0 0 0 0 0 0 0 0 0 0 0 0 0 0 0 0 0 0 0 0 0 0 0 0 0 0 0 0 0 0 0 0 0 0 0 0 0 0 0 0 0 0 0 0 -95
0 0 0 0 0 0 0 0 0 0 0 0 0 0 0 0 0 0 0 0 0 0 0 0 0 0 0 0 0 0 0 0 0 0 0 0 0 0 0 0 0 0 -464 -417 -414
0 0 0 0 0 0 0 0 0 0 0 0 0 0 0 0 0 0 0 0 0 0 0 0 0 0 0 0 0 0 0 0 0 0 0 0 0 0 0 0 0 0 0 -534 -435
0 0 0 0 0 0 0 0 0 0 0 0 0 0 0 0 0 0 0 0 0 0 0 0 0 0 0 0 0 0 0 0 0 0 0 0 0 0 0 0 0 0 0 0 -251
0 0 0 0 0 0 0 0 0 0 0 0 0 0 0 0 0 0 0 0 0 0 0 0 0 0 0 0 0 0 0 0 0 0 0 0 0 0 0 0 0 0 0 0 0
0 0 0 0 0 0 0 0 0 0 0 0 0 0 0 0 0 0 0 0 0 0 0 0 0 0 0 0 0 0 0 0 0 0 0 0 0 0 0 0 0 0 0 0 0
0 0 0 0 0 0 0 0 0 0 0 0 0 0 0 0 0 0 0 0 0 0 0 0 0 0 0 0 0 0 0 0 0 0 0 0 0 0 0 0 0 0 0 0 0
0 0 0 0 0 0 0 0 0 0 0 0 0 0 0 0 0 0 0 0 0 0 0 0 0 0 0 0 0 0 0 0 0 0 0 0 0 0 0 0 0 0 0 0 0
0 0 0 0 0 0 0 0 0 0 0 0 0 0 0 0 0 0 0 0 0 0 0 0 0 0 0 0 0 0 0 0 0 0 0 0 0 0 0 0 0 0 0 0 0
0 0 0 0 0 0 0 0 0 0 0 0 0 0 0 0 0 0 0 0 0 0 0 0 0 0 0 0 0 0 0 0 0 0 0 0 0 0 0 0 0 0 0 0 0
0 0 0 0 0 0 0 0 0 0 0 0 0 0 0 0 0 0 0 0 0 0 0 0 0 0 0 0 0 0 0 0 0 0 0 0 0 0 0 0 0 0 0 0 0
0 0 0 0 0 0 0 0 0 0 0 0 0 0 0 0 0 0 0 0 0 0 0 0 0 0 0 0 0 0 0 0 0 0 0 0 0 0 0 0 0 0 0 0 0
0 0 0 0 0 0 0 0 0 0 0 0 0 0 0 0 0 0 0 0 0 0 0 0 0 0 0 0 0 0 0 0 0 0 0 0 0 0 0 0 0 0 0 0 0
0 0 0 0 0 0 0 0 0 0 0 0 0 0 0 0 0 0 0 0 0 0 0 0 0 0 0 0 0 0 0 0 0 0 0 0 0 0 0 0 0 0 0 0 0
0 0 0 0 0 0 0 0 0 0 0 0 0 0 0 0 0 0 0 0 0 0 0 0 0 0 0 0 0 0 0 0 0 0 0 0 0 0 0 0 0 0 0 0 0
0 0 0 0 0 0 0 0 0 0 0 0 0 0 0 0 0 0 0 0 0 0 0 0 0 0 0 0 0 0 0 0 0 0 0 0 0 0 0 0 0 0 0 0 0
0 0 0 0 0 0 0 0 0 0 0 0 0 0 0 0 0 0 0 0 0 0 0 0 0 0 0 0 0 0 0 0 0 0 0 0 0 0 0 0 0 0 0 0 0
0 0 0 0 0 0 0 0 0 0 0 0 0 0 0 0 0 0 0 0 0 0 0 0 0 0 0 0 0 0 0 0 0 0 0 0 0 0 0 0 0 0 0 0 -150
Wind_Speed
20 20 20 20 20 20 20 20 20 20 19 19 18 18 18 19 19 17 21 10 8 4 8 5 12 14 17 14 15 15 7 5 7 10 16 7 14 16 14 13 12 13 13 15 13
21 21 20 20 20 20 21 21 21 21 20 20 19 18 18 18 17 19 19 10 8 9 5 3 6 10 14 15 15 12 5 5 7 9 8 18 13 16 15 16 13 13 15 11 11
21 21 20 20 20 20 20 21 21 21 21 19 18 17 17 16 13 14 13 9 10 7 9 9 5 9 10 13 12 10 7 6 6 6 9 17 21 11 16 16 16 16 10 9 10
23 22 21 20 20 20 20 20 20 21 20 19 17 16 15 14 11 13 11 9 9 8 7 6 6 8 9 11 11 10 9 9 16 14 16 19 20 15 14 16 20 17 8 8 9
25 24 22 21 20 19 19 19 19 19 19 17 14 13 13 13 13 16 9 8 6 8 6 6 7 8 9 10 11 12 13 15 21 25 22 16 12 14 16 26 25 5 6 7 8
25 25 24 22 21 20 19 19 18 17 15 13 11 11 13 12 13 11 9 7 6 7 6 6 9 10 10 12 13 15 18 20 19 19 17 19 14 11 20 25 13 4 5 5 7
26 25 24 23 22 21 20 19 18 15 13 11 10 13 14 13 12 8 6 9 6 6 5 9 9 12 12 11 15 15 18 17 14 18 16 15 12 16 24 23 21 19 2 2 2
26 26 25 23 22 21 20 19 17 14 12 11 11 14 15 13 11 6 7 9 9 9 10 9 11 12 14 14 15 15 14 11 13 14 16 15 12 19 22 21 22 24 23 5 2
26 25 24 23 22 21 20 17 15 13 12 11 14 14 15 12 11 6 6 10 8 11 12 11 14 14 14 14 14 16 13 15 16 13 20 17 15 19 21 21 23 25 26 21 14
27 26 23 21 20 20 17 14 13 14 15 16 17 16 15 12 10 8 10 6 13 7 12 14 15 15 16 18 17 16 16 15 17 15 21 18 18 19 21 22 23 25 26 26 23
30 29 25 22 20 15 14 15 19 17 16 15 14 15 14 14 10 12 8 8 10 14 14 16 17 19 18 18 16 16 17 20 18 17 19 20 18 20 21 22 24 25 26 27 26
32 31 28 23 21 12 14 17 18 20 25 26 28 28 22 15 14 12 4 12 15 16 15 19 24 17 16 15 16 17 18 20 22 17 18 20 19 18 22 23 24 25 25 26 25
34 32 29 24 15 13 16 17 21 16 22 23 18 19 18 9 18 12 4 13 17 17 18 22 20 13 13 17 19 20 19 19 21 22 18 19 21 18 18 20 21 23 23 23 23
35 31 28 21 14 16 16 22 24 16 20 17 16 16 12 11 16 12 4 11 17 19 16 22 19 19 21 22 19 22 16 20 20 21 24 20 29 20 18 20 21 22 23 23 23
35 30 27 18 16 16 21 26 19 18 21 17 15 11 10 9 12 12 10 13 15 15 13 17 13 14 17 18 12 21 16 19 23 23 23 22 27 24 19 18 21 21 21 22 21
36 30 24 19 18 19 26 21 16 20 20 18 15 15 11 15 16 13 11 14 15 16 19 20 18 17 19 17 13 18 22 23 23 23 31 25 24 26 22 19 17 18 21 21 20
35 27 24 20 22 27 23 15 21 20 22 21 20 21 20 17 19 16 13 14 16 19 23 23 23 20 18 22 18 20 22 26 26 25 30 21 23 25 18 17 18 18 19 18 17
34 24 22 24 26 23 19 17 21 21 21 22 23 25 21 20 20 22 20 21 21 22 24 24 26 19 17 19 22 19 21 24 31 29 28 23 27 25 16 16 17 17 17 15 13
32 22 23 31 26 22 21 22 22 21 23 25 27 25 23 21 23 23 25 27 26 22 27 26 29 21 19 17 17 22 24 22 29 29 33 30 28 24 17 17 17 17 16 14 13
28 23 25 34 25 21 21 22 21 21 25 23 25 23 25 24 24 24 24 22 24 22 22 28 36 28 25 21 23 23 16 26 25 35 37 31 30 28 21 18 17 17 14 13 11
27 24 29 34 21 22 23 22 22 21 24 23 24 26 26 27 25 25 25 23 21 21 19 22 28 28 23 26 26 25 27 26 26 28 36 40 33 21 21 21 18 14 12 12 11
28 26 32 31 24 22 23 25 24 25 25 25 25 25 26 26 28 28 30 26 24 22 26 24 27 34 32 27 26 28 31 27 32 33 32 36 40 24 25 21 13 13 12 11 10
31 25 28 27 25 26 26 26 24 27 27 27 27 26 27 28 31 27 27 22 26 25 27 24 31 37 35 30 26 30 28 28 29 30 35 38 38 24 20 15 15 15 14 11 9
30 30 28 25 23 28 31 29 28 29 25 27 29 27 30 30 28 31 29 25 27 25 25 23 30 33 39 34 26 29 29 27 29 35 36 37 38 26 22 21 18 16 14 12 11
32 28 28 31 33 31 30 31 33 32 28 29 27 29 31 34 34 32 31 33 28 27 26 26 35 32 34 33 32 36 34 29 28 29 32 32 30 26 25 24 19 16 14 13 12
32 32 31 31 31 34 33 32 35 34 33 34 34 38 36 36 35 37 35 31 32 32 32 30 37 35 41 37 35 40 36 33 30 29 30 33 33 26 25 23 22 19 15 13 12
31 28 30 33 34 36 33 36 36 38 33 30 38 42 40 38 39 40 39 39 38 37 35 33 32 33 43 34 33 40 33 30 30 28 27 29 30 24 24 24 21 19 16 15 13
Wind_Direction
313 305 297 289 281 274 266 261 258 255 251 249 254 257 255 257 264 296 211 267 319 290 92 31 290 278 263 281 278 278 328 24 43 64 223 280 252 32 40 95 52 10 10 24 74
317 311 304 298 292 283 275 269 264 260 263 270 280 284 281 278 281 226 241 318 332 73 17 12 323 290 275 273 278 295 339 35 23 81 48 227 260 232 321 334 17 16 9 49 80
318 312 307 301 297 291 281 273 265 263 269 280 291 297 303 304 315 318 300 62 79 342 306 298 347 305 305 287 297 319 340 352 28 55 23 331 293 34 326 337 336 354 51 76 104
322 315 308 301 295 292 285 275 268 264 269 281 297 309 319 324 344 334 327 72 67 338 341 7 331 312 310 303 303 320 344 342 308 327 325 314 303 331 339 333 320 343 68 89 122
323 319 312 306 299 292 287 281 279 278 281 295 313 325 328 316 316 305 55 70 9 336 358 11 331 321 308 305 306 306 310 309 280 267 287 320 347 338 337 272 287 64 93 120 139
323 319 313 308 305 301 299 299 301 305 307 316 331 340 321 322 322 349 59 40 9 351 27 346 310 305 306 294 296 294 292 291 293 297 310 300 340 358 327 297 359 81 151 129 151
320 317 313 308 304 302 305 308 311 320 327 333 340 325 314 314 325 16 19 335 23 343 340 302 322 292 298 307 287 304 301 305 318 292 313 322 352 344 311 325 338 343 68 161 159
318 314 309 304 300 301 305 312 320 334 340 342 335 321 308 316 327 9 334 325 319 303 289 306 304 296 282 295 302 311 322 330 331 323 332 325 333 335 330 340 341 333 328 356 287
316 312 305 297 294 297 305 318 332 337 335 338 321 316 307 321 306 332 329 310 312 280 279 290 284 291 293 304 314 313 326 316 309 336 323 328 328 335 336 341 340 338 334 337 335
315 312 303 289 280 288 326 344 345 332 318 309 303 306 304 306 300 304 289 358 279 286 281 284 293 294 295 296 305 311 315 321 314 323 316 322 325 329 334 338 339 339 337 336 329
315 312 305 292 280 314 25 355 313 316 317 310 311 299 300 294 303 285 289 304 291 278 285 286 291 289 297 305 312 315 312 307 314 324 320 319 321 323 328 333 332 333 333 331 332
316 313 307 297 292 40 15 329 324 308 283 250 235 261 275 288 285 288 298 285 282 282 287 287 284 299 309 314 310 310 311 309 306 322 323 320 322 324 326 328 330 330 332 334 334
319 314 310 309 345 1 342 336 322 346 310 295 298 285 278 283 280 281 256 288 287 286 286 285 298 324 303 301 302 304 307 310 308 312 322 321 316 317 328 334 336 338 338 341 343
321 316 317 333 353 337 333 316 313 346 318 316 309 304 288 288 286 287 243 295 293 288 294 294 298 297 298 295 298 300 310 308 310 313 307 320 304 316 320 325 333 335 337 339 341
321 318 331 0 355 340 322 311 332 327 314 321 322 328 305 277 309 280 282 291 291 294 297 304 311 309 302 301 304 303 317 309 306 306 309 310 305 309 317 318 324 333 336 340 343
324 326 349 8 2 347 317 327 335 313 305 315 319 312 307 279 298 309 282 297 301 293 293 295 305 307 306 310 309 314 309 309 308 305 297 303 301 307 312 317 325 332 332 335 340
325 340 7 7 347 323 333 344 316 306 315 309 309 308 296 290 280 293 284 276 282 287 285 289 289 298 302 298 306 305 304 303 302 300 299 311 305 306 319 323 326 329 331 336 340
324 352 4 1 339 347 351 336 313 315 310 315 310 304 296 292 289 282 284 282 281 285 292 287 291 292 296 289 297 299 297 296 298 298 303 308 303 310 321 325 328 330 332 338 342
338 358 358 333 340 349 339 319 316 319 318 311 306 300 297 295 290 287 282 282 282 275 279 288 287 298 300 301 296 298 291 302 297 303 299 298 304 310 314 315 321 324 327 329 330
360 354 351 330 347 350 337 322 322 326 320 316 306 306 298 297 293 290 286 292 287 289 283 287 285 290 292 296 297 290 299 297 299 295 294 300 299 302 307 307 311 313 314 320 325
0 353 345 330 359 344 330 327 325 326 323 315 308 302 300 297 296 292 292 293 292 293 293 289 286 290 292 284 283 288 287 292 296 292 293 295 299 310 308 310 306 305 308 312 312
358 346 344 342 340 341 332 327 327 322 322 315 311 305 301 299 295 291 287 290 298 294 289 290 291 285 285 294 293 287 286 282 283 287 291 294 294 313 313 315 312 309 309 309 308
352 353 351 351 336 333 332 327 325 321 319 314 309 309 306 300 295 293 291 296 298 291 290 289 286 284 286 289 292 287 285 286 287 290 284 290 296 316 320 320 314 312 309 302 298
352 343 347 354 353 336 327 323 320 322 319 317 309 309 304 298 297 294 293 297 299 297 297 291 282 281 281 289 296 289 287 286 283 283 288 287 296 304 307 308 308 306 306 301 295
352 346 345 332 332 331 328 321 316 314 317 317 308 309 305 296 295 291 296 292 293 298 295 290 282 283 284 285 287 287 286 286 282 284 284 294 294 301 305 305 303 302 303 297 292
351 344 339 333 332 327 325 321 315 313 310 306 303 303 301 294 293 291 295 294 289 292 290 292 283 286 283 285 284 283 282 281 278 280 283 289 291 302 307 308 305 300 293 283 283
356 351 341 334 330 326 322 319 313 313 310 307 307 301 297 295 296 292 289 286 285 286 287 288 287 284 281 286 285 282 278 275 278 279 283 283 293 301 303 305 302 300 297 291 290